Location: *
(35.2348°S, 91.3916°E)
Time: 17:36:08
(UTC+00:00)

SL-8 Rocket - Pass Details

Date: 23 October 2019
Orbit: 957 x 991 km, 82.9° (Epoch: 13 November)

Event Time Altitude Azimuth Distance (km) Brightness Sun altitude
Rises 22:07:12 0° 187° (S) 3,732 7.3 -11.3°
Reaches altitude 10° 22:09:45 10° 187° (S) 2,773 6.6 -10.8°
Maximum altitude 22:16:08 86° 273° (W) 996 4.0 -9.6°
Drops below altitude 10° 22:22:24 10° 3° (N) 2,719 6.2 -8.4°
Sets 22:24:52 0° 3° (N) 3,653 6.8 -7.9°
